Year,Month,Day,Hour,Minute,Value (Times are PST for temperature in C)
2014,08,12,00,00,21.10
2014,08,12,00,01,21.10
2014,08,12,00,02,21.10
2014,08,12,00,03,21.10
2014,08,12,00,04,21.10
2014,08,12,00,05,21.10
2014,08,12,00,06,21.10
2014,08,12,00,07,21.10
2014,08,12,00,08,21.10
2014,08,12,00,09,21.10
2014,08,12,00,10,21.10
2014,08,12,00,11,21.10
2014,08,12,00,12,21.10
2014,08,12,00,13,21.10
2014,08,12,00,14,21.10
2014,08,12,00,15,21.10
2014,08,12,00,16,21.20
2014,08,12,00,17,21.20
2014,08,12,00,18,21.20
2014,08,12,00,19,21.20
2014,08,12,00,20,21.20
2014,08,12,00,21,21.20
2014,08,12,00,22,21.20
2014,08,12,00,23,21.20
2014,08,12,00,24,21.20
2014,08,12,00,25,21.20
2014,08,12,00,26,21.20
2014,08,12,00,27,21.30
2014,08,12,00,28,21.30
2014,08,12,00,29,21.30
2014,08,12,00,30,21.30
2014,08,12,00,31,21.30
2014,08,12,00,32,21.30
2014,08,12,00,33,21.30
2014,08,12,00,34,21.40
2014,08,12,00,35,21.50
2014,08,12,00,36,21.50
2014,08,12,00,37,21.60
2014,08,12,00,38,21.70
2014,08,12,00,39,21.70
2014,08,12,00,40,21.70
2014,08,12,00,41,21.70
2014,08,12,00,42,21.80
2014,08,12,00,43,21.80
2014,08,12,00,44,21.80
2014,08,12,00,45,21.80
2014,08,12,00,46,21.70
2014,08,12,00,47,21.70
2014,08,12,00,48,21.70
2014,08,12,00,49,21.70
2014,08,12,00,50,21.70
2014,08,12,00,51,21.70
2014,08,12,00,52,21.70
2014,08,12,00,53,21.70
2014,08,12,00,54,21.70
2014,08,12,00,55,21.70
2014,08,12,00,56,21.70
2014,08,12,00,57,21.70
2014,08,12,00,58,21.70
2014,08,12,00,59,21.70
2014,08,12,01,00,21.80
2014,08,12,01,01,21.80
2014,08,12,01,02,21.80
2014,08,12,01,03,21.80
2014,08,12,01,04,21.80
2014,08,12,01,05,21.80
2014,08,12,01,06,21.80
2014,08,12,01,07,21.90
2014,08,12,01,08,21.90
2014,08,12,01,09,21.90
2014,08,12,01,10,21.90
2014,08,12,01,11,21.90
2014,08,12,01,12,21.90
2014,08,12,01,13,21.90
2014,08,12,01,14,21.90
2014,08,12,01,15,21.90
2014,08,12,01,16,21.90
2014,08,12,01,17,21.90
2014,08,12,01,18,21.90
2014,08,12,01,19,21.90
2014,08,12,01,20,21.90
2014,08,12,01,21,21.90
2014,08,12,01,22,21.90
2014,08,12,01,23,21.90
2014,08,12,01,24,21.90
2014,08,12,01,25,21.80
2014,08,12,01,26,21.80
2014,08,12,01,27,21.80
2014,08,12,01,28,21.80
2014,08,12,01,29,21.70
2014,08,12,01,30,21.70
2014,08,12,01,31,21.70
2014,08,12,01,32,21.70
2014,08,12,01,33,21.60
2014,08,12,01,34,21.60
2014,08,12,01,35,21.60
2014,08,12,01,36,21.60
2014,08,12,01,37,21.50
2014,08,12,01,38,21.50
2014,08,12,01,39,21.40
2014,08,12,01,40,21.40
2014,08,12,01,41,21.40
2014,08,12,01,42,21.30
2014,08,12,01,43,21.30
2014,08,12,01,44,21.30
2014,08,12,01,45,21.20
2014,08,12,01,46,21.20
2014,08,12,01,47,21.20
2014,08,12,01,48,21.10
2014,08,12,01,49,21.10
2014,08,12,01,50,21.10
2014,08,12,01,51,21.10
2014,08,12,01,52,21.00
2014,08,12,01,53,21.00
2014,08,12,01,54,21.00
2014,08,12,01,55,21.00
2014,08,12,01,56,20.90
2014,08,12,01,57,20.90
2014,08,12,01,58,20.90
2014,08,12,01,59,20.90
2014,08,12,02,00,20.90
2014,08,12,02,01,20.90
2014,08,12,02,02,20.90
2014,08,12,02,03,20.80
2014,08,12,02,04,20.80
2014,08,12,02,05,20.80
2014,08,12,02,06,20.80
2014,08,12,02,07,20.80
2014,08,12,02,08,20.80
2014,08,12,02,09,20.80
2014,08,12,02,10,20.80
2014,08,12,02,11,20.80
2014,08,12,02,12,20.80
2014,08,12,02,13,20.80
2014,08,12,02,14,20.70
2014,08,12,02,15,20.70
2014,08,12,02,16,20.70
2014,08,12,02,17,20.70
2014,08,12,02,18,20.70
2014,08,12,02,19,20.70
2014,08,12,02,20,20.70
2014,08,12,02,21,20.70
2014,08,12,02,22,20.70
2014,08,12,02,23,20.70
2014,08,12,02,24,20.70
2014,08,12,02,25,20.70
2014,08,12,02,26,20.70
2014,08,12,02,27,20.70
2014,08,12,02,28,20.80
2014,08,12,02,29,20.80
2014,08,12,02,30,20.80
2014,08,12,02,31,20.80
2014,08,12,02,32,20.80
2014,08,12,02,33,20.80
2014,08,12,02,34,20.80
2014,08,12,02,35,20.80
2014,08,12,02,36,20.80
2014,08,12,02,37,20.80
2014,08,12,02,38,20.80
2014,08,12,02,39,20.80
2014,08,12,02,40,20.80
2014,08,12,02,41,20.70
2014,08,12,02,42,20.70
2014,08,12,02,43,20.70
2014,08,12,02,44,20.70
2014,08,12,02,45,20.70
2014,08,12,02,46,20.70
2014,08,12,02,47,20.70
2014,08,12,02,48,20.60
2014,08,12,02,49,20.60
2014,08,12,02,50,20.60
2014,08,12,02,51,20.50
2014,08,12,02,52,20.50
2014,08,12,02,53,20.50
2014,08,12,02,54,20.50
2014,08,12,02,55,20.40
2014,08,12,02,56,20.40
2014,08,12,02,57,20.40
2014,08,12,02,58,20.40
2014,08,12,02,59,20.40
2014,08,12,03,00,20.30
2014,08,12,03,01,20.30
2014,08,12,03,02,20.30
2014,08,12,03,03,20.30
2014,08,12,03,04,20.30
2014,08,12,03,05,20.30
2014,08,12,03,06,20.30
2014,08,12,03,07,20.30
2014,08,12,03,08,20.30
2014,08,12,03,09,20.30
2014,08,12,03,10,20.30
2014,08,12,03,11,20.30
2014,08,12,03,12,20.30
2014,08,12,03,13,20.30
2014,08,12,03,14,20.30
2014,08,12,03,15,20.30
2014,08,12,03,16,20.30
2014,08,12,03,17,20.30
2014,08,12,03,18,20.30
2014,08,12,03,19,20.30
2014,08,12,03,20,20.40
2014,08,12,03,21,20.40
2014,08,12,03,22,20.40
2014,08,12,03,23,20.40
2014,08,12,03,24,20.50
2014,08,12,03,25,20.50
2014,08,12,03,26,20.50
2014,08,12,03,27,20.60
2014,08,12,03,28,20.60
2014,08,12,03,29,20.70
2014,08,12,03,30,20.70
2014,08,12,03,31,20.80
2014,08,12,03,32,20.90
2014,08,12,03,33,20.90
2014,08,12,03,34,21.00
2014,08,12,03,35,21.10
2014,08,12,03,36,21.10
2014,08,12,03,37,21.20
2014,08,12,03,38,21.20
2014,08,12,03,39,21.30
2014,08,12,03,40,21.30
2014,08,12,03,41,21.40
2014,08,12,03,42,21.50
2014,08,12,03,43,21.50
2014,08,12,03,44,21.60
2014,08,12,03,45,21.60
2014,08,12,03,46,21.70
2014,08,12,03,47,21.70
2014,08,12,03,48,21.70
2014,08,12,03,49,21.70
2014,08,12,03,50,21.80
2014,08,12,03,51,21.80
2014,08,12,03,52,21.90
2014,08,12,03,53,21.90
2014,08,12,03,54,21.90
2014,08,12,03,55,21.90
2014,08,12,03,56,21.90
2014,08,12,03,57,21.90
2014,08,12,03,58,21.90
2014,08,12,03,59,21.90
2014,08,12,04,00,21.80
2014,08,12,04,01,21.80
2014,08,12,04,02,21.80
2014,08,12,04,03,21.70
2014,08,12,04,04,21.70
2014,08,12,04,05,21.70
2014,08,12,04,06,21.60
2014,08,12,04,07,21.60
2014,08,12,04,08,21.50
2014,08,12,04,09,21.50
2014,08,12,04,10,21.40
2014,08,12,04,11,21.40
2014,08,12,04,12,21.40
2014,08,12,04,13,21.40
2014,08,12,04,14,21.40
2014,08,12,04,15,21.40
2014,08,12,04,16,21.30
2014,08,12,04,17,21.30
2014,08,12,04,18,21.30
2014,08,12,04,19,21.30
2014,08,12,04,20,21.30
2014,08,12,04,21,21.30
2014,08,12,04,22,21.40
2014,08,12,04,23,21.40
2014,08,12,04,24,21.50
2014,08,12,04,25,21.50
2014,08,12,04,26,21.50
2014,08,12,04,27,21.50
2014,08,12,04,28,21.50
2014,08,12,04,29,21.60
2014,08,12,04,30,21.60
2014,08,12,04,31,21.70
2014,08,12,04,32,21.70
2014,08,12,04,33,21.80
2014,08,12,04,34,21.80
2014,08,12,04,35,21.80
2014,08,12,04,36,21.80
2014,08,12,04,37,21.80
2014,08,12,04,38,21.80
2014,08,12,04,39,21.80
2014,08,12,04,40,21.80
2014,08,12,04,41,21.80
2014,08,12,04,42,21.80
2014,08,12,04,43,21.80
2014,08,12,04,44,21.80
2014,08,12,04,45,21.70
2014,08,12,04,46,21.70
2014,08,12,04,47,21.70
2014,08,12,04,48,21.70
2014,08,12,04,49,21.60
2014,08,12,04,50,21.60
2014,08,12,04,51,21.60
2014,08,12,04,52,21.60
2014,08,12,04,53,21.60
2014,08,12,04,54,21.60
2014,08,12,04,55,21.60
2014,08,12,04,56,21.60
2014,08,12,04,57,21.60
2014,08,12,04,58,21.60
2014,08,12,04,59,21.70
2014,08,12,05,00,21.70
2014,08,12,05,01,21.70
2014,08,12,05,02,21.70
2014,08,12,05,03,21.70
2014,08,12,05,04,21.70
2014,08,12,05,05,21.70
2014,08,12,05,06,21.70
2014,08,12,05,07,21.70
2014,08,12,05,08,21.70
2014,08,12,05,09,21.70
2014,08,12,05,10,21.70
2014,08,12,05,11,21.60
2014,08,12,05,12,21.70
2014,08,12,05,13,21.60
2014,08,12,05,14,21.60
2014,08,12,05,15,21.60
2014,08,12,05,16,21.60
2014,08,12,05,17,21.60
2014,08,12,05,18,21.60
2014,08,12,05,19,21.60
2014,08,12,05,20,21.60
2014,08,12,05,21,21.60
2014,08,12,05,22,21.60
2014,08,12,05,23,21.60
2014,08,12,05,24,21.60
2014,08,12,05,25,21.50
2014,08,12,05,26,21.50
2014,08,12,05,27,21.40
2014,08,12,05,28,21.40
2014,08,12,05,29,21.40
2014,08,12,05,30,21.40
2014,08,12,05,31,21.40
2014,08,12,05,32,21.30
2014,08,12,05,33,21.30
2014,08,12,05,34,21.30
2014,08,12,05,35,21.30
2014,08,12,05,36,21.30
2014,08,12,05,37,21.20
2014,08,12,05,38,21.20
2014,08,12,05,39,21.20
2014,08,12,05,40,21.20
2014,08,12,05,41,21.10
2014,08,12,05,42,21.10
2014,08,12,05,43,21.10
2014,08,12,05,44,21.10
2014,08,12,05,45,21.10
2014,08,12,05,46,21.10
2014,08,12,05,47,21.10
2014,08,12,05,48,21.00
2014,08,12,05,49,21.00
2014,08,12,05,50,21.00
2014,08,12,05,51,21.00
2014,08,12,05,52,20.90
2014,08,12,05,53,20.90
2014,08,12,05,54,20.90
2014,08,12,05,55,20.90
2014,08,12,05,56,20.80
2014,08,12,05,57,20.80
2014,08,12,05,58,20.80
2014,08,12,05,59,20.80
2014,08,12,06,00,20.80
2014,08,12,06,01,20.70
2014,08,12,06,02,20.70
2014,08,12,06,03,20.70
2014,08,12,06,04,20.70
2014,08,12,06,05,20.60
2014,08,12,06,06,20.60
2014,08,12,06,07,20.60
2014,08,12,06,08,20.60
2014,08,12,06,09,20.50
2014,08,12,06,10,20.50
2014,08,12,06,11,20.50
2014,08,12,06,12,20.50
2014,08,12,06,13,20.40
2014,08,12,06,14,20.40
2014,08,12,06,15,20.40
2014,08,12,06,16,20.40
2014,08,12,06,17,20.40
2014,08,12,06,18,20.40
2014,08,12,06,19,20.40
2014,08,12,06,20,20.40
2014,08,12,06,21,20.30
2014,08,12,06,22,20.30
2014,08,12,06,23,20.30
2014,08,12,06,24,20.30
2014,08,12,06,25,20.30
2014,08,12,06,26,20.30
2014,08,12,06,27,20.30
2014,08,12,06,28,20.30
2014,08,12,06,29,20.30
2014,08,12,06,30,20.30
2014,08,12,06,31,20.30
2014,08,12,06,32,20.30
2014,08,12,06,33,20.30
2014,08,12,06,34,20.30
2014,08,12,06,35,20.30
2014,08,12,06,36,20.30
2014,08,12,06,37,20.30
2014,08,12,06,38,20.30
2014,08,12,06,39,20.30
2014,08,12,06,40,20.30
2014,08,12,06,41,20.30
2014,08,12,06,42,20.30
2014,08,12,06,43,20.30
2014,08,12,06,44,20.30
2014,08,12,06,45,20.30
2014,08,12,06,46,20.30
2014,08,12,06,47,20.30
2014,08,12,06,48,20.30
2014,08,12,06,49,20.30
2014,08,12,06,50,20.30
2014,08,12,06,51,20.30
2014,08,12,06,52,20.30
2014,08,12,06,53,20.30
2014,08,12,06,54,20.30
2014,08,12,06,55,20.30
2014,08,12,06,56,20.30
2014,08,12,06,57,20.30
2014,08,12,06,58,20.30
2014,08,12,06,59,20.30
2014,08,12,07,00,20.30
2014,08,12,07,01,20.30
2014,08,12,07,02,20.30
2014,08,12,07,03,20.30
2014,08,12,07,04,20.30
2014,08,12,07,05,20.30
2014,08,12,07,06,20.30
2014,08,12,07,07,20.30
2014,08,12,07,08,20.30
2014,08,12,07,09,20.30
2014,08,12,07,10,20.30
2014,08,12,07,11,20.30
2014,08,12,07,12,20.30
2014,08,12,07,13,20.30
2014,08,12,07,14,20.30
2014,08,12,07,15,20.30
2014,08,12,07,16,20.30
2014,08,12,07,17,20.30
2014,08,12,07,18,20.20
2014,08,12,07,19,20.20
2014,08,12,07,20,20.20
2014,08,12,07,21,20.20
2014,08,12,07,22,20.20
2014,08,12,07,23,20.20
2014,08,12,07,24,20.20
2014,08,12,07,25,20.20
2014,08,12,07,26,20.20
2014,08,12,07,27,20.20
2014,08,12,07,28,20.20
2014,08,12,07,29,20.20
2014,08,12,07,30,20.20
2014,08,12,07,31,20.20
2014,08,12,07,32,20.20
2014,08,12,07,33,20.20
2014,08,12,07,34,20.20
2014,08,12,07,35,20.20
2014,08,12,07,36,20.20
2014,08,12,07,37,20.20
2014,08,12,07,38,20.20
2014,08,12,07,39,20.20
2014,08,12,07,40,20.20
2014,08,12,07,41,20.20
2014,08,12,07,42,20.20
2014,08,12,07,43,20.20
2014,08,12,07,44,20.20
2014,08,12,07,45,20.20
2014,08,12,07,46,20.20
2014,08,12,07,47,20.20
2014,08,12,07,48,20.20
2014,08,12,07,49,20.20
2014,08,12,07,50,20.20
2014,08,12,07,51,20.20
2014,08,12,07,52,20.20
2014,08,12,07,53,20.30
2014,08,12,07,54,20.30
2014,08,12,07,55,20.30
2014,08,12,07,56,20.30
2014,08,12,07,57,20.30
2014,08,12,07,58,20.40
2014,08,12,07,59,20.40
2014,08,12,08,00,20.40
2014,08,12,08,01,20.40
2014,08,12,08,02,20.40
2014,08,12,08,03,20.40
2014,08,12,08,04,20.40
2014,08,12,08,05,20.50
2014,08,12,08,06,20.50
2014,08,12,08,07,20.50
2014,08,12,08,08,20.50
2014,08,12,08,09,20.60
2014,08,12,08,10,20.60
2014,08,12,08,11,20.60
2014,08,12,08,12,20.70
2014,08,12,08,13,20.70
2014,08,12,08,14,20.70
2014,08,12,08,15,20.80
2014,08,12,08,16,20.80
2014,08,12,08,17,20.80
2014,08,12,08,18,20.90
2014,08,12,08,19,20.90
2014,08,12,08,20,20.90
2014,08,12,08,21,20.90
2014,08,12,08,22,20.90
2014,08,12,08,23,21.00
2014,08,12,08,24,21.00
2014,08,12,08,25,21.10
2014,08,12,08,26,21.10
2014,08,12,08,27,21.10
2014,08,12,08,28,21.20
2014,08,12,08,29,21.20
2014,08,12,08,30,21.20
2014,08,12,08,31,21.20
2014,08,12,08,32,21.20
2014,08,12,08,33,21.20
2014,08,12,08,34,21.20
2014,08,12,08,35,21.30
2014,08,12,08,36,21.30
2014,08,12,08,37,21.20
2014,08,12,08,38,21.30
2014,08,12,08,39,21.20
2014,08,12,08,40,21.30
2014,08,12,08,41,21.30
2014,08,12,08,42,21.30
2014,08,12,08,43,21.30
2014,08,12,08,44,21.30
2014,08,12,08,45,21.30
2014,08,12,08,46,21.30
2014,08,12,08,47,21.30
2014,08,12,08,48,21.30
2014,08,12,08,49,21.40
2014,08,12,08,50,21.40
2014,08,12,08,51,21.40
2014,08,12,08,52,21.40
2014,08,12,08,53,21.50
2014,08,12,08,54,21.50
2014,08,12,08,55,21.50
2014,08,12,08,56,21.60
2014,08,12,08,57,21.60
2014,08,12,08,58,21.60
2014,08,12,08,59,21.70
2014,08,12,09,00,21.70
2014,08,12,09,01,21.70
2014,08,12,09,02,21.70
2014,08,12,09,03,21.80
2014,08,12,09,04,21.80
2014,08,12,09,05,21.80
2014,08,12,09,06,21.80
2014,08,12,09,07,21.80
2014,08,12,09,08,21.80
2014,08,12,09,09,21.90
2014,08,12,09,10,21.80
2014,08,12,09,11,21.90
2014,08,12,09,12,21.80
2014,08,12,09,13,21.80
2014,08,12,09,14,21.80
2014,08,12,09,15,21.80
2014,08,12,09,16,21.80
2014,08,12,09,17,21.80
2014,08,12,09,18,21.80
2014,08,12,09,19,21.80
2014,08,12,09,20,21.80
2014,08,12,09,21,21.80
2014,08,12,09,22,21.80
2014,08,12,09,23,21.80
2014,08,12,09,24,21.70
2014,08,12,09,25,21.70
2014,08,12,09,26,21.70
2014,08,12,09,27,21.60
2014,08,12,09,28,21.60
2014,08,12,09,29,21.60
2014,08,12,09,30,21.60
2014,08,12,09,31,21.60
2014,08,12,09,32,21.60
2014,08,12,09,33,21.60
2014,08,12,09,34,21.60
2014,08,12,09,35,21.60
2014,08,12,09,36,21.60
2014,08,12,09,37,21.60
2014,08,12,09,38,21.60
2014,08,12,09,39,21.60
2014,08,12,09,40,21.70
2014,08,12,09,41,21.70
2014,08,12,09,42,21.70
2014,08,12,09,43,21.80
2014,08,12,09,44,21.80
2014,08,12,09,45,21.80
2014,08,12,09,46,21.90
2014,08,12,09,47,21.90
2014,08,12,09,48,22.00
2014,08,12,09,49,22.10
2014,08,12,09,50,22.10
2014,08,12,09,51,22.20
2014,08,12,09,52,22.20
2014,08,12,09,53,22.20
2014,08,12,09,54,22.30
2014,08,12,09,55,22.30
2014,08,12,09,56,22.30
2014,08,12,09,57,22.30
2014,08,12,09,58,22.30
2014,08,12,09,59,22.40
2014,08,12,10,00,22.40
2014,08,12,10,01,22.40
2014,08,12,10,02,22.50
2014,08,12,10,03,22.50
2014,08,12,10,04,22.60
2014,08,12,10,05,22.60
2014,08,12,10,06,22.70
2014,08,12,10,07,22.70
2014,08,12,10,08,22.80
2014,08,12,10,09,22.80
2014,08,12,10,10,22.80
2014,08,12,10,11,22.80
2014,08,12,10,12,22.80
2014,08,12,10,13,22.80
2014,08,12,10,14,22.80
2014,08,12,10,15,22.80
2014,08,12,10,16,22.80
2014,08,12,10,17,22.80
2014,08,12,10,18,22.80
2014,08,12,10,19,22.70
2014,08,12,10,20,22.70
2014,08,12,10,21,22.70
2014,08,12,10,22,22.70
2014,08,12,10,23,22.70
2014,08,12,10,24,22.70
2014,08,12,10,25,22.70
2014,08,12,10,26,22.70
2014,08,12,10,27,22.70
2014,08,12,10,28,22.60
2014,08,12,10,29,22.60
2014,08,12,10,30,22.60
2014,08,12,10,31,22.60
2014,08,12,10,32,22.60
2014,08,12,10,33,22.60
2014,08,12,10,34,22.60
2014,08,12,10,35,22.60
2014,08,12,10,36,22.60
2014,08,12,10,37,22.70
2014,08,12,10,38,22.70
2014,08,12,10,39,22.70
2014,08,12,10,40,22.70
2014,08,12,10,41,22.70
2014,08,12,10,42,22.80
2014,08,12,10,43,22.80
2014,08,12,10,44,22.80
2014,08,12,10,45,22.80
2014,08,12,10,46,22.80
2014,08,12,10,47,22.80
2014,08,12,10,48,22.80
2014,08,12,10,49,22.80
2014,08,12,10,50,22.80
2014,08,12,10,51,22.80
2014,08,12,10,52,22.80
2014,08,12,10,53,22.80
2014,08,12,10,54,22.80
2014,08,12,10,55,22.80
2014,08,12,10,56,22.80
2014,08,12,10,57,22.80
2014,08,12,10,58,22.80
2014,08,12,10,59,22.80
2014,08,12,11,00,22.80
2014,08,12,11,01,22.80
2014,08,12,11,02,22.80
2014,08,12,11,03,22.80
2014,08,12,11,04,22.80
2014,08,12,11,05,22.80
2014,08,12,11,06,22.80
2014,08,12,11,07,22.80
2014,08,12,11,08,22.80
2014,08,12,11,09,22.80
2014,08,12,11,10,22.80
2014,08,12,11,11,22.80
2014,08,12,11,12,22.80
2014,08,12,11,13,22.80
2014,08,12,11,14,22.80
2014,08,12,11,15,22.80
2014,08,12,11,16,22.80
2014,08,12,11,17,22.80
2014,08,12,11,18,22.80
2014,08,12,11,19,22.80
2014,08,12,11,20,22.70
2014,08,12,11,21,22.70
2014,08,12,11,22,22.70
2014,08,12,11,23,22.70
2014,08,12,11,24,22.70
2014,08,12,11,25,22.70
2014,08,12,11,26,22.70
2014,08,12,11,27,22.70
2014,08,12,11,28,22.70
2014,08,12,11,29,22.70
2014,08,12,11,30,22.70
2014,08,12,11,31,22.60
2014,08,12,11,32,22.60
2014,08,12,11,33,22.60
2014,08,12,11,34,22.60
2014,08,12,11,35,22.60
2014,08,12,11,36,22.60
2014,08,12,11,37,22.70
2014,08,12,11,38,22.70
2014,08,12,11,39,22.70
2014,08,12,11,40,22.70
2014,08,12,11,41,22.70
2014,08,12,11,42,22.70
2014,08,12,11,43,22.70
2014,08,12,11,44,22.70
2014,08,12,11,45,22.80
2014,08,12,11,46,22.80
2014,08,12,11,47,22.80
2014,08,12,11,48,22.80
2014,08,12,11,49,22.90
2014,08,12,11,50,22.90
2014,08,12,11,51,23.00
2014,08,12,11,52,23.00
2014,08,12,11,53,23.00
2014,08,12,11,54,23.10
2014,08,12,11,55,23.10
2014,08,12,11,56,23.10
2014,08,12,11,57,23.10
2014,08,12,11,58,23.10
2014,08,12,11,59,23.10
2014,08,12,12,00,23.10
2014,08,12,12,01,23.20
2014,08,12,12,02,23.20
2014,08,12,12,03,23.20
2014,08,12,12,04,23.30
2014,08,12,12,05,23.30
2014,08,12,12,06,23.30
2014,08,12,12,07,23.30
2014,08,12,12,08,23.40
2014,08,12,12,09,23.40
2014,08,12,12,10,23.40
2014,08,12,12,11,23.40
2014,08,12,12,12,23.30
2014,08,12,12,13,23.30
2014,08,12,12,14,23.30
2014,08,12,12,15,23.30
2014,08,12,12,16,23.20
2014,08,12,12,17,23.20
2014,08,12,12,18,23.20
2014,08,12,12,19,23.20
2014,08,12,12,20,23.20
2014,08,12,12,21,23.20
2014,08,12,12,22,23.20
2014,08,12,12,23,23.20
2014,08,12,12,24,23.20
2014,08,12,12,25,23.20
2014,08,12,12,26,23.20
2014,08,12,12,27,23.20
2014,08,12,12,28,23.20
2014,08,12,12,29,23.10
2014,08,12,12,30,23.10
2014,08,12,12,31,23.10
2014,08,12,12,32,23.00
2014,08,12,12,33,22.90
2014,08,12,12,34,22.90
2014,08,12,12,35,22.80
2014,08,12,12,36,22.70
2014,08,12,12,37,22.70
2014,08,12,12,38,22.60
2014,08,12,12,39,22.50
2014,08,12,12,40,22.40
2014,08,12,12,41,22.30
2014,08,12,12,42,22.20
2014,08,12,12,43,22.10
2014,08,12,12,44,22.00
2014,08,12,12,45,21.90
2014,08,12,12,46,21.80
2014,08,12,12,47,21.80
2014,08,12,12,48,21.70
2014,08,12,12,49,21.60
2014,08,12,12,50,21.50
2014,08,12,12,51,21.50
2014,08,12,12,52,21.40
2014,08,12,12,53,21.30
2014,08,12,12,54,21.20
2014,08,12,12,55,21.10
2014,08,12,12,56,21.00
2014,08,12,12,57,20.90
2014,08,12,12,58,20.90
2014,08,12,12,59,20.80
2014,08,12,13,00,20.80
2014,08,12,13,01,20.80
2014,08,12,13,02,20.70
2014,08,12,13,03,20.70
2014,08,12,13,04,20.60
2014,08,12,13,05,20.60
2014,08,12,13,06,20.50
2014,08,12,13,07,20.40
2014,08,12,13,08,20.30
2014,08,12,13,09,20.20
2014,08,12,13,10,20.20
2014,08,12,13,11,20.10
2014,08,12,13,12,20.10
2014,08,12,13,13,20.10
2014,08,12,13,14,20.00
2014,08,12,13,15,20.00
2014,08,12,13,16,20.00
2014,08,12,13,17,19.90
2014,08,12,13,18,19.90
2014,08,12,13,19,19.90
2014,08,12,13,20,19.90
2014,08,12,13,21,19.90
2014,08,12,13,22,19.90
2014,08,12,13,23,19.80
2014,08,12,13,24,19.80
2014,08,12,13,25,19.80
2014,08,12,13,26,19.80
2014,08,12,13,27,19.80
2014,08,12,13,28,19.80
2014,08,12,13,29,19.80
2014,08,12,13,30,19.80
2014,08,12,13,31,19.80
2014,08,12,13,32,19.80
2014,08,12,13,33,19.70
2014,08,12,13,34,19.70
2014,08,12,13,35,19.70
2014,08,12,13,36,19.70
2014,08,12,13,37,19.60
2014,08,12,13,38,19.60
2014,08,12,13,39,19.60
2014,08,12,13,40,19.60
2014,08,12,13,41,19.50
2014,08,12,13,42,19.50
2014,08,12,13,43,19.50
2014,08,12,13,44,19.50
2014,08,12,13,45,19.50
2014,08,12,13,46,19.50
2014,08,12,13,47,19.50
2014,08,12,13,48,19.50
2014,08,12,13,49,19.50
2014,08,12,13,50,19.40
2014,08,12,13,51,19.40
2014,08,12,13,52,19.40
2014,08,12,13,53,19.40
2014,08,12,13,54,19.40
2014,08,12,13,55,19.40
2014,08,12,13,56,19.30
2014,08,12,13,57,19.30
2014,08,12,13,58,19.30
2014,08,12,13,59,19.30
2014,08,12,14,00,19.30
2014,08,12,14,01,19.30
2014,08,12,14,02,19.30
2014,08,12,14,03,19.30
2014,08,12,14,04,19.40
2014,08,12,14,05,19.40
2014,08,12,14,06,19.40
2014,08,12,14,07,19.30
2014,08,12,14,08,19.30
2014,08,12,14,09,19.30
2014,08,12,14,10,19.30
2014,08,12,14,11,19.30
2014,08,12,14,12,19.20
2014,08,12,14,13,19.20
2014,08,12,14,14,19.20
2014,08,12,14,15,19.20
2014,08,12,14,16,19.20
2014,08,12,14,17,19.20
2014,08,12,14,18,19.20
2014,08,12,14,19,19.20
2014,08,12,14,20,19.10
2014,08,12,14,21,19.10
2014,08,12,14,22,19.10
2014,08,12,14,23,19.10
2014,08,12,14,24,19.10
2014,08,12,14,25,19.10
2014,08,12,14,26,19.10
2014,08,12,14,27,19.10
2014,08,12,14,28,19.10
2014,08,12,14,29,19.10
2014,08,12,14,30,19.10
2014,08,12,14,31,19.10
2014,08,12,14,32,19.10
2014,08,12,14,33,19.10
2014,08,12,14,34,19.10
2014,08,12,14,35,19.10
2014,08,12,14,36,19.10
2014,08,12,14,37,19.10
2014,08,12,14,38,19.10
2014,08,12,14,39,19.10
2014,08,12,14,40,19.10
2014,08,12,14,41,19.10
2014,08,12,14,42,19.10
2014,08,12,14,43,19.10
2014,08,12,14,44,19.10
2014,08,12,14,45,19.10
2014,08,12,14,46,19.10
2014,08,12,14,47,19.10
2014,08,12,14,48,19.10
2014,08,12,14,49,19.10
2014,08,12,14,50,19.10
2014,08,12,14,51,19.10
2014,08,12,14,52,19.10
2014,08,12,14,53,19.10
2014,08,12,14,54,19.10
2014,08,12,14,55,19.20
2014,08,12,14,56,19.20
2014,08,12,14,57,19.20
2014,08,12,14,58,19.20
2014,08,12,14,59,19.20
2014,08,12,15,00,19.20
2014,08,12,15,01,19.20
2014,08,12,15,02,19.20
2014,08,12,15,03,19.30
2014,08,12,15,04,19.30
2014,08,12,15,05,19.30
2014,08,12,15,06,19.40
2014,08,12,15,07,19.40
2014,08,12,15,08,19.40
2014,08,12,15,09,19.50
2014,08,12,15,10,19.50
2014,08,12,15,11,19.50
2014,08,12,15,12,19.60
2014,08,12,15,13,19.60
2014,08,12,15,14,19.70
2014,08,12,15,15,19.70
2014,08,12,15,16,19.70
2014,08,12,15,17,19.70
2014,08,12,15,18,19.80
2014,08,12,15,19,19.80
2014,08,12,15,20,19.80
2014,08,12,15,21,19.80
2014,08,12,15,22,19.80
2014,08,12,15,23,19.80
2014,08,12,15,24,19.80
2014,08,12,15,25,19.80
2014,08,12,15,26,19.90
2014,08,12,15,27,19.90
2014,08,12,15,28,19.90
2014,08,12,15,29,19.90
2014,08,12,15,30,20.00
2014,08,12,15,31,20.00
2014,08,12,15,32,20.10
2014,08,12,15,33,20.10
2014,08,12,15,34,20.10
2014,08,12,15,35,20.20
2014,08,12,15,36,20.20
2014,08,12,15,37,20.30
2014,08,12,15,38,20.30
2014,08,12,15,39,20.40
2014,08,12,15,40,20.50
2014,08,12,15,41,20.50
2014,08,12,15,42,20.60
2014,08,12,15,43,20.60
2014,08,12,15,44,20.70
2014,08,12,15,45,20.70
2014,08,12,15,46,20.80
2014,08,12,15,47,20.90
2014,08,12,15,48,20.90
2014,08,12,15,49,21.00
2014,08,12,15,50,21.10
2014,08,12,15,51,21.10
2014,08,12,15,52,21.20
2014,08,12,15,53,21.20
2014,08,12,15,54,21.20
2014,08,12,15,55,21.30
2014,08,12,15,56,21.30
2014,08,12,15,57,21.30
2014,08,12,15,58,21.40
2014,08,12,15,59,21.40
2014,08,12,16,00,21.50
2014,08,12,16,01,21.50
2014,08,12,16,02,21.60
2014,08,12,16,03,21.70
2014,08,12,16,04,21.80
2014,08,12,16,05,21.90
2014,08,12,16,06,21.90
2014,08,12,16,07,22.00
2014,08,12,16,08,22.00
2014,08,12,16,09,22.10
2014,08,12,16,10,22.20
2014,08,12,16,11,22.20
2014,08,12,16,12,22.30
2014,08,12,16,13,22.30
2014,08,12,16,14,22.30
2014,08,12,16,15,22.40
2014,08,12,16,16,22.50
2014,08,12,16,17,22.50
2014,08,12,16,18,22.60
2014,08,12,16,19,22.60
2014,08,12,16,20,22.70
2014,08,12,16,21,22.70
2014,08,12,16,22,22.70
2014,08,12,16,23,22.70
2014,08,12,16,24,22.70
2014,08,12,16,25,22.70
2014,08,12,16,26,22.70
2014,08,12,16,27,22.70
2014,08,12,16,28,22.70
2014,08,12,16,29,22.80
2014,08,12,16,30,22.80
2014,08,12,16,31,22.80
2014,08,12,16,32,22.80
2014,08,12,16,33,22.80
2014,08,12,16,34,22.80
2014,08,12,16,35,22.80
2014,08,12,16,36,22.80
2014,08,12,16,37,22.80
2014,08,12,16,38,22.80
2014,08,12,16,39,22.80
2014,08,12,16,40,22.80
2014,08,12,16,41,22.80
2014,08,12,16,42,22.80
2014,08,12,16,43,22.80
2014,08,12,16,44,22.80
2014,08,12,16,45,22.80
2014,08,12,16,46,22.80
2014,08,12,16,47,22.70
2014,08,12,16,48,22.70
2014,08,12,16,49,22.70
2014,08,12,16,50,22.70
2014,08,12,16,51,22.70
2014,08,12,16,52,22.70
2014,08,12,16,53,22.70
2014,08,12,16,54,22.70
2014,08,12,16,55,22.70
2014,08,12,16,56,22.70
2014,08,12,16,57,22.70
2014,08,12,16,58,22.70
2014,08,12,16,59,22.70
2014,08,12,17,00,22.60
2014,08,12,17,01,22.60
2014,08,12,17,02,22.60
2014,08,12,17,03,22.60
2014,08,12,17,04,22.60
2014,08,12,17,05,22.50
2014,08,12,17,06,22.50
2014,08,12,17,07,22.40
2014,08,12,17,08,22.40
2014,08,12,17,09,22.40
2014,08,12,17,10,22.30
2014,08,12,17,11,22.30
2014,08,12,17,12,22.30
2014,08,12,17,13,22.30
2014,08,12,17,14,22.30
2014,08,12,17,15,22.30
2014,08,12,17,16,22.30
2014,08,12,17,17,22.20
2014,08,12,17,18,22.20
2014,08,12,17,19,22.20